Simultaneous Nadir Overpasses (SNOs) Predictions

Prediction of SNOs between LANDSAT-8 and NOAA-19 Satellite Orbit:

Table of predicted SNOs for the next 14.0 days since TLE Epoch: 4/2/2016
Index Date (LANDSAT-8) Time (LANDSAT-8) Lat,Lon (LANDSAT-8) SZA (LANDSAT-8 ) Date (NOAA-19) Time (NOAA-19) Lat,Lon (NOAA-19) SZA (NOAA-19 ) Distance(km) Time Diff (sec)
1 04/03/2016 09:12:40 -74.43,-134.25 111.18 04/03/2016 09:12:39 -74.41,-134.25 111.19 1.49 1
2 04/05/2016 13:56:56 -74.49, 154.82 111.95 04/05/2016 13:55:47 -74.51, 154.76 111.94 2.60 69
3 04/05/2016 14:46:23 74.41, -37.72 67.96 04/05/2016 14:46:46 74.43, -37.77 67.98 2.40 23
4 04/07/2016 19:30:39 74.46,-108.67 67.19 04/07/2016 19:29:52 74.46,-108.58 67.19 2.71 47
5 04/07/2016 20:20:08 -74.39, 58.79 112.90 04/07/2016 20:20:53 -74.41, 58.81 112.88 1.48 45
6
